QPF
0.00 0.00 0.00 0.00 0.00 0.00 0.00 0.00 0.00 0.00 0.00 0.00 0.00 0.00 0.00 0.00 0.00 0.00 0.00 0.00 0.00 0.00 0.00 0.00 0.00 0.00 0.00 0.00 0.00 0.00 0.00 0.00 0.00 0.01 0.00 0.00 0.00 0.01 0.01 0.01 0.00 0.00 0.00 0.00 0.00 0.00 0.00 0.00 0.00
0.00 0.00 0.00 0.00 0.00 0.00 0.00 0.00 0.00 0.00 0.00 0.00 0.00 0.00 0.00 0.00 0.00 0.00 0.00 0.00 0.00 0.00 0.00 0.00 0.00 0.00 0.00 0.00 0.00 0.00 0.00 0.00 0.01 0.01 0.00 0.00 0.00 0.00 0.00 0.00 0.00 0.00 0.00 0.00 0.00 0.00 0.00 0.00 0.00
0.00 0.00 0.00 0.00 0.00 0.00 0.00 0.00 0.00 0.00 0.00 0.00 0.00 0.00 0.00 0.00 0.00 0.00 0.00 0.00 0.00 0.00 0.00 0.00 0.00 0.00 0.00 0.00 0.00 0.00 0.00 0.01 0.01 0.01 0.00 0.01 0.01 0.00 0.00 0.00 0.00 0.00 0.00 0.00 0.00 0.00 0.00 0.00 0.00
0.00 0.00 0.00 0.00 0.00 0.00 0.00 0.00 0.00 0.00 0.00 0.00 0.00 0.00 0.00 0.00 0.00 0.00 0.00 0.00 0.00 0.00 0.00 0.00 0.00 0.00 0.00 0.00 0.00 0.00 0.00 0.01 0.01 0.01 0.00 0.01 0.00 0.00 0.00 0.00 0.00 0.00 0.00 0.00 0.00 0.00 0.00 0.00 0.00
0.00 0.00 0.00 0.00 0.00 0.00 0.00 0.00 0.00 0.00 0.00 0.00 0.00 0.00 0.00 0.00 0.00 0.00 0.00 0.00 0.00 0.00 0.00 0.00 0.00 0.00 0.00 0.00 0.00 0.00 0.01 0.01 0.01 0.01 0.00 0.01 0.00 0.00 0.00 0.00 0.00 0.00 0.00 0.00 0.00 0.00 0.00 0.00 0.00
0.00 0.00 0.00 0.00 0.00 0.00 0.00 0.00 0.00 0.00 0.00 0.00 0.00 0.00 0.00 0.00 0.00 0.00 0.00 0.00 0.00 0.00 0.00 0.00 0.00 0.00 0.00 0.01 0.01 0.01 0.01 0.01 0.01 0.01 0.01 0.01 0.01 0.00 0.00 0.00 0.00 0.00 0.00 0.00 0.00 0.00 0.00 0.00 0.00
0.00 0.00 0.00 0.00 0.00 0.00 0.00 0.00 0.00 0.00 0.00 0.00 0.00 0.00 0.00 0.00 0.00 0.00 0.00 0.00 0.00 0.00 0.00 0.00 0.00 0.00 0.01 0.01 0.01 0.01 0.01 0.01 0.01 0.01 0.01 0.01 0.01 0.01 0.00 0.00 0.00 0.00 0.00 0.00 0.00 0.00 0.00 0.00 0.00
0.00 0.00 0.00 0.00 0.00 0.00 0.00 0.00 0.00 0.00 0.00 0.00 0.00 0.00 0.00 0.00 0.00 0.00 0.00 0.00 0.00 0.00 0.00 0.00 0.00 0.00 0.00 0.01 0.01 0.01 0.01 0.01 0.01 0.01 0.01 0.00 0.01 0.01 0.01 0.00 0.00 0.00 0.00 0.00 0.00 0.00 0.00 0.00 0.00
0.00 0.00 0.00 0.00 0.00 0.00 0.00 0.00 0.00 0.00 0.00 0.00 0.00 0.00 0.00 0.00 0.00 0.00 0.00 0.00 0.00 0.00 0.00 0.00 0.00 0.00 0.00 0.00 0.01 0.01 0.01 0.01 0.01 0.01 0.01 0.00 0.00 0.00 0.00 0.00 0.00 0.00 0.00 0.00 0.00 0.00 0.00 0.00 0.00
0.00 0.00 0.00 0.00 0.00 0.00 0.00 0.00 0.00 0.00 0.00 0.00 0.00 0.00 0.00 0.00 0.00 0.00 0.00 0.00 0.00 0.00 0.00 0.00 0.00 0.00 0.00 0.00 0.01 0.01 0.01 0.01 0.01 0.00 0.00 0.00 0.00 0.00 0.00 0.00 0.00 0.00 0.00 0.00 0.00 0.00 0.00 0.00 0.00
0.00 0.00 0.00 0.00 0.00 0.00 0.00 0.00 0.00 0.00 0.00 0.00 0.00 0.00 0.00 0.00 0.00 0.00 0.00 0.00 0.00 0.00 0.00 0.00 0.00 0.00 0.00 0.00 0.00 0.01 0.01 0.01 0.00 0.00 0.00 0.00 0.00 0.00 0.00 0.00 0.00 0.00 0.00 0.00 0.00 0.00 0.00 0.00 0.00
0.00 0.00 0.00 0.00 0.00 0.00 0.00 0.00 0.00 0.00 0.00 0.00 0.00 0.00 0.00 0.00 0.00 0.00 0.00 0.00 0.00 0.00 0.00 0.00 0.00 0.00 0.00 0.00 0.00 0.01 0.01 0.01 0.00 0.00 0.00 0.00 0.00 0.00 0.00 0.00 0.00 0.00 0.00 0.00 0.00 0.00 0.00 0.00 0.00
0.00 0.00 0.00 0.00 0.00 0.00 0.00 0.00 0.00 0.00 0.00 0.00 0.00 0.00 0.00 0.00 0.00 0.00 0.00 0.00 0.00 0.00 0.00 0.00 0.00 0.00 0.00 0.00 0.00 0.00 0.00 0.00 0.00 0.00 0.00 0.00 0.00 0.00 0.00 0.00 0.00 0.00 0.00 0.00 0.00 0.00 0.00 0.00 0.00
0.00 0.00 0.00 0.00 0.00 0.00 0.00 0.00 0.00 0.00 0.00 0.00 0.00 0.00 0.00 0.00 0.00 0.00 0.00 0.00 0.00 0.00 0.00 0.00 0.00 0.00 0.00 0.00 0.00 0.00 0.00 0.00 0.00 0.00 0.00 0.00 0.00 0.00 0.00 0.00 0.00 0.00 0.00 0.00 0.00 0.00 0.00 0.00 0.00
0.00 0.00 0.00 0.00 0.00 0.00 0.00 0.00 0.00 0.00 0.00 0.00 0.00 0.00 0.00 0.00 0.00 0.00 0.00 0.00 0.00 0.00 0.00 0.00 0.00 0.00 0.00 0.00 0.00 0.00 0.00 0.00 0.00 0.00 0.00 0.00 0.00 0.00 0.00 0.00 0.00 0.00 0.00 0.00 0.00 0.00 0.00 0.00 0.00
0.00 0.00 0.00 0.00 0.00 0.00 0.00 0.00 0.00 0.00 0.00 0.00 0.00 0.00 0.00 0.00 0.00 0.00 0.00 0.00 0.00 0.00 0.00 0.00 0.00 0.00 0.00 0.00 0.00 0.00 0.00 0.00 0.00 0.00 0.00 0.00 0.00 0.00 0.00 0.00 0.00 0.00 0.00 0.00 0.00 0.00 0.00 0.00 0.00
0.00 0.00 0.00 0.00 0.00 0.00 0.00 0.00 0.00 0.00 0.00 0.00 0.00 0.00 0.00 0.00 0.00 0.00 0.00 0.00 0.00 0.00 0.00 0.00 0.00 0.00 0.00 0.00 0.00 0.00 0.00 0.00 0.00 0.00 0.00 0.00 0.00 0.00 0.00 0.00 0.00 0.00 0.00 0.00 0.00 0.00 0.00 0.00 0.00
0.00 0.00 0.00 0.00 0.00 0.00 0.00 0.00 0.00 0.00 0.00 0.00 0.00 0.00 0.00 0.00 0.00 0.00 0.00 0.00 0.00 0.00 0.00 0.00 0.00 0.00 0.00 0.00 0.00 0.00 0.00 0.00 0.00 0.00 0.00 0.00 0.00 0.00 0.00 0.00 0.00 0.00 0.00 0.00 0.00 0.00 0.00 0.00 0.00
0.00 0.00 0.00 0.00 0.00 0.00 0.00 0.00 0.00 0.00 0.00 0.00 0.00 0.00 0.00 0.00 0.00 0.00 0.00 0.00 0.00 0.00 0.00 0.00 0.00 0.00 0.00 0.00 0.00 0.00 0.00 0.00 0.00 0.00 0.00 0.00 0.00 0.00 0.00 0.00 0.00 0.00 0.00 0.00 0.00 0.00 0.00 0.00 0.00
0.00 0.00 0.00 0.00 0.00 0.00 0.00 0.00 0.00 0.00 0.00 0.00 0.00 0.00 0.00 0.00 0.00 0.00 0.00 0.00 0.00 0.00 0.00 0.00 0.00 0.00 0.00 0.00 0.00 0.00 0.00 0.00 0.00 0.00 0.00 0.00 0.00 0.00 0.00 0.00 0.00 0.00 0.00 0.00 0.00 0.00 0.00 0.00 0.00
0.00 0.00 0.00 0.00 0.00 0.00 0.00 0.00 0.00 0.00 0.00 0.00 0.00 0.00 0.00 0.00 0.00 0.00 0.00 0.00 0.00 0.00 0.00 0.00 0.00 0.00 0.00 0.00 0.00 0.00 0.00 0.00 0.00 0.00 0.00 0.00 0.00 0.00 0.00 0.00 0.00 0.00 0.00 0.00 0.00 0.00 0.00 0.00 0.00
0.00 0.00 0.00 0.00 0.00 0.00 0.00 0.00 0.00 0.00 0.00 0.00 0.00 0.00 0.00 0.00 0.00 0.00 0.00 0.00 0.00 0.00 0.00 0.00 0.00 0.00 0.00 0.00 0.00 0.00 0.00 0.00 0.00 0.00 0.00 0.00 0.00 0.00 0.00 0.00 0.00 0.00 0.00 0.00 0.00 0.00 0.00 0.00 0.00
0.00 0.00 0.00 0.00 0.00 0.00 0.00 0.00 0.00 0.00 0.00 0.00 0.00 0.00 0.00 0.00 0.00 0.00 0.00 0.00 0.00 0.00 0.00 0.00 0.00 0.00 0.00 0.00 0.00 0.00 0.00 0.00 0.00 0.00 0.00 0.00 0.00 0.00 0.00 0.00 0.00 0.00 0.00 0.00 0.00 0.00 0.00 0.00 0.00
0.00 0.00 0.00 0.00 0.00 0.00 0.00 0.00 0.00 0.00 0.00 0.00 0.00 0.00 0.00 0.00 0.00 0.00 0.00 0.00 0.00 0.00 0.00 0.00 0.00 0.00 0.00 0.00 0.00 0.00 0.00 0.00 0.00 0.00 0.00 0.00 0.00 0.00 0.00 0.00 0.00 0.00 0.00 0.00 0.00 0.00 0.00 0.00 0.00
0.00 0.00 0.00 0.00 0.00 0.00 0.00 0.00 0.00 0.00 0.00 0.00 0.00 0.00 0.00 0.00 0.00 0.00 0.00 0.00 0.00 0.00 0.00 0.00 0.00 0.00 0.00 0.00 0.00 0.00 0.00 0.00 0.00 0.00 0.00 0.00 0.00 0.00 0.00 0.00 0.00 0.00 0.00 0.00 0.00 0.00 0.00 0.00 0.00
0.00 0.00 0.00 0.00 0.00 0.00 0.00 0.00 0.00 0.00 0.00 0.00 0.00 0.00 0.00 0.00 0.00 0.00 0.00 0.00 0.00 0.00 0.00 0.00 0.00 0.00 0.00 0.00 0.00 0.00 0.00 0.00 0.00 0.00 0.00 0.00 0.00 0.00 0.00 0.00 0.00 0.00 0.00 0.00 0.00 0.00 0.00 0.00 0.00
0.00 0.00 0.00 0.00 0.00 0.00 0.00 0.00 0.00 0.00 0.00 0.00 0.00 0.00 0.00 0.00 0.00 0.00 0.00 0.00 0.00 0.00 0.00 0.00 0.00 0.00 0.00 0.00 0.00 0.00 0.00 0.00 0.00 0.00 0.00 0.00 0.00 0.00 0.00 0.00 0.00 0.00 0.00 0.00 0.00 0.00 0.00 0.00 0.00
0.00 0.00 0.00 0.00 0.00 0.00 0.00 0.00 0.00 0.00 0.00 0.00 0.00 0.00 0.00 0.00 0.00 0.00 0.00 0.00 0.00 0.00 0.00 0.00 0.00 0.00 0.00 0.00 0.00 0.00 0.00 0.00 0.00 0.00 0.00 0.00 0.00 0.00 0.00 0.00 0.00 0.00 0.00 0.00 0.00 0.00 0.00 0.00 0.00
0.00 0.00 0.00 0.00 0.00 0.00 0.00 0.00 0.00 0.00 0.00 0.00 0.00 0.00 0.00 0.00 0.00 0.00 0.00 0.00 0.00 0.00 0.00 0.00 0.00 0.00 0.00 0.00 0.00 0.00 0.00 0.00 0.00 0.00 0.00 0.00 0.00 0.00 0.00 0.00 0.00 0.00 0.00 0.00 0.00 0.00 0.00 0.00 0.00
0.00 0.00 0.00 0.00 0.00 0.00 0.00 0.00 0.00 0.00 0.00 0.00 0.00 0.00 0.00 0.00 0.00 0.00 0.00 0.00 0.00 0.00 0.00 0.00 0.00 0.00 0.00 0.00 0.00 0.00 0.00 0.00 0.00 0.00 0.00 0.00 0.00 0.00 0.00 0.00 0.00 0.00 0.00 0.00 0.00 0.00 0.00 0.00 0.00
MSLP
1013.29 1013.86 1014.52 1015.19 1015.76 1016.15 1016.32 1016.28 1016.05 1015.72 1015.38 1015.10 1014.94 1014.89 1014.95 1015.07 1015.21 1015.32 1015.39 1015.44 1015.52 1015.66 1015.92 1016.31 1016.83 1017.43 1018.06 1018.64 1019.13 1019.51 1019.77 1019.96 1020.13 1020.30 1020.53 1020.82 1021.14 1021.47 1021.77 1022.01 1022.17 1022.25 1022.28 1022.30 1022.31 1022.34 1022.39 1022.45 1022.48
1013.52 1014.17 1014.87 1015.51 1015.99 1016.26 1016.28 1016.08 1015.72 1015.29 1014.88 1014.56 1014.38 1014.33 1014.38 1014.50 1014.62 1014.72 1014.79 1014.87 1014.99 1015.21 1015.56 1016.06 1016.69 1017.38 1018.08 1018.73 1019.26 1019.67 1019.96 1020.17 1020.36 1020.56 1020.81 1021.11 1021.44 1021.77 1022.06 1022.28 1022.43 1022.52 1022.57 1022.61 1022.66 1022.72 1022.80 1022.87 1022.90
1013.82 1014.51 1015.18 1015.74 1016.09 1016.20 1016.07 1015.73 1015.26 1014.76 1014.32 1014.01 1013.83 1013.80 1013.86 1013.98 1014.09 1014.19 1014.28 1014.38 1014.56 1014.86 1015.30 1015.89 1016.60 1017.38 1018.13 1018.81 1019.37 1019.79 1020.10 1020.34 1020.54 1020.77 1021.03 1021.34 1021.67 1021.98 1022.25 1022.45 1022.59 1022.68 1022.75 1022.82 1022.90 1023.00 1023.11 1023.20 1023.24
1014.18 1014.85 1015.45 1015.88 1016.09 1016.04 1015.76 1015.32 1014.78 1014.26 1013.83 1013.55 1013.41 1013.41 1013.49 1013.61 1013.73 1013.82 1013.92 1014.05 1014.28 1014.64 1015.15 1015.81 1016.59 1017.40 1018.18 1018.87 1019.43 1019.86 1020.17 1020.42 1020.64 1020.88 1021.17 1021.48 1021.80 1022.10 1022.35 1022.54 1022.67 1022.76 1022.84 1022.94 1023.06 1023.21 1023.35 1023.47 1023.53
1014.57 1015.18 1015.66 1015.96 1016.01 1015.83 1015.44 1014.93 1014.39 1013.89 1013.51 1013.29 1013.21 1013.25 1013.35 1013.47 1013.57 1013.66 1013.75 1013.90 1014.15 1014.55 1015.11 1015.82 1016.61 1017.43 1018.21 1018.88 1019.42 1019.83 1020.14 1020.38 1020.63 1020.89 1021.20 1021.52 1021.85 1022.14 1022.38 1022.56 1022.69 1022.80 1022.90 1023.03 1023.19 1023.37 1023.55 1023.70 1023.78
1014.94 1015.46 1015.83 1015.99 1015.91 1015.63 1015.18 1014.66 1014.14 1013.71 1013.42 1013.27 1013.25 1013.33 1013.44 1013.54 1013.62 1013.67 1013.75 1013.89 1014.15 1014.57 1015.14 1015.85 1016.65 1017.45 1018.19 1018.82 1019.32 1019.70 1020.00 1020.26 1020.52 1020.82 1021.14 1021.50 1021.84 1022.14 1022.39 1022.57 1022.70 1022.82 1022.95 1023.10 1023.29 1023.50 1023.71 1023.89 1023.99
1015.27 1015.70 1015.94 1015.99 1015.82 1015.48 1015.02 1014.54 1014.09 1013.75 1013.55 1013.48 1013.51 1013.60 1013.70 1013.77 1013.80 1013.81 1013.85 1013.97 1014.22 1014.62 1015.19 1015.89 1016.65 1017.41 1018.10 1018.69 1019.15 1019.51 1019.81 1020.07 1020.36 1020.69 1021.05 1021.43 1021.80 1022.13 1022.38 1022.58 1022.72 1022.85 1022.99 1023.17 1023.37 1023.60 1023.83 1024.02 1024.14
1015.50 1015.84 1015.99 1015.95 1015.74 1015.38 1014.96 1014.54 1014.19 1013.95 1013.83 1013.82 1013.89 1013.97 1014.03 1014.04 1014.01 1013.97 1013.96 1014.04 1014.27 1014.66 1015.20 1015.87 1016.60 1017.32 1017.96 1018.51 1018.94 1019.29 1019.59 1019.88 1020.19 1020.56 1020.96 1021.38 1021.77 1022.12 1022.39 1022.59 1022.75 1022.88 1023.03 1023.20 1023.41 1023.64 1023.87 1024.06 1024.18
1015.64 1015.90 1015.98 1015.89 1015.65 1015.32 1014.96 1014.63 1014.37 1014.22 1014.17 1014.19 1014.26 1014.31 1014.31 1014.26 1014.16 1014.06 1014.00 1014.06 1014.26 1014.63 1015.15 1015.79 1016.48 1017.17 1017.78 1018.30 1018.73 1019.07 1019.39 1019.70 1020.06 1020.46 1020.90 1021.34 1021.75 1022.11 1022.39 1022.60 1022.75 1022.89 1023.02 1023.19 1023.38 1023.60 1023.81 1023.99 1024.11
1015.68 1015.87 1015.90 1015.78 1015.56 1015.27 1014.98 1014.73 1014.55 1014.46 1014.45 1014.49 1014.52 1014.53 1014.47 1014.35 1014.20 1014.04 1013.95 1013.98 1014.17 1014.52 1015.02 1015.64 1016.31 1016.97 1017.57 1018.09 1018.52 1018.89 1019.23 1019.58 1019.97 1020.40 1020.86 1021.31 1021.74 1022.09 1022.37 1022.57 1022.72 1022.83 1022.95 1023.10 1023.27 1023.46 1023.64 1023.80 1023.91
1015.67 1015.80 1015.78 1015.65 1015.44 1015.19 1014.96 1014.78 1014.66 1014.61 1014.61 1014.62 1014.63 1014.58 1014.47 1014.30 1014.10 1013.93 1013.82 1013.84 1014.02 1014.36 1014.85 1015.45 1016.11 1016.76 1017.36 1017.88 1018.34 1018.74 1019.12 1019.50 1019.92 1020.36 1020.82 1021.28 1021.69 1022.03 1022.29 1022.48 1022.61 1022.70 1022.80 1022.92 1023.06 1023.22 1023.37 1023.51 1023.60
1015.65 1015.71 1015.65 1015.50 1015.30 1015.09 1014.90 1014.75 1014.66 1014.62 1014.61 1014.60 1014.56 1014.48 1014.34 1014.15 1013.94 1013.77 1013.67 1013.69 1013.87 1014.20 1014.68 1015.26 1015.90 1016.55 1017.15 1017.70 1018.19 1018.62 1019.04 1019.45 1019.88 1020.32 1020.77 1021.20 1021.58 1021.90 1022.14 1022.30 1022.41 1022.50 1022.58 1022.67 1022.78 1022.91 1023.03 1023.14 1023.22
1015.66 1015.66 1015.54 1015.37 1015.17 1014.97 1014.79 1014.66 1014.57 1014.52 1014.49 1014.45 1014.39 1014.29 1014.15 1013.98 1013.80 1013.65 1013.58 1013.61 1013.79 1014.11 1014.56 1015.11 1015.73 1016.36 1016.98 1017.54 1018.06 1018.53 1018.97 1019.39 1019.82 1020.24 1020.66 1021.05 1021.40 1021.68 1021.90 1022.05 1022.15 1022.22 1022.29 1022.37 1022.46 1022.57 1022.67 1022.75 1022.80
1015.75 1015.67 1015.50 1015.29 1015.07 1014.86 1014.68 1014.54 1014.43 1014.36 1014.30 1014.26 1014.20 1014.12 1014.01 1013.89 1013.77 1013.67 1013.63 1013.68 1013.84 1014.13 1014.54 1015.04 1015.62 1016.23 1016.84 1017.41 1017.95 1018.44 1018.90 1019.32 1019.73 1020.12 1020.49 1020.84 1021.14 1021.39 1021.58 1021.73 1021.83 1021.91 1021.98 1022.06 1022.15 1022.23 1022.31 1022.37 1022.39
1015.91 1015.76 1015.55 1015.30 1015.06 1014.82 1014.62 1014.45 1014.31 1014.22 1014.15 1014.10 1014.07 1014.05 1014.01 1013.97 1013.92 1013.89 1013.88 1013.94 1014.07 1014.31 1014.65 1015.08 1015.60 1016.17 1016.76 1017.33 1017.87 1018.38 1018.83 1019.24 1019.62 1019.96 1020.28 1020.58 1020.83 1021.06 1021.24 1021.38 1021.50 1021.59 1021.68 1021.77 1021.85 1021.93 1021.99 1022.02 1022.02
1016.11 1015.92 1015.67 1015.41 1015.14 1014.89 1014.65 1014.45 1014.28 1014.15 1014.08 1014.06 1014.07 1014.12 1014.18 1014.23 1014.28 1014.30 1014.33 1014.38 1014.47 1014.63 1014.88 1015.24 1015.68 1016.19 1016.75 1017.31 1017.85 1018.35 1018.79 1019.18 1019.51 1019.80 1020.06 1020.30 1020.52 1020.71 1020.89 1021.04 1021.18 1021.30 1021.40 1021.50 1021.58 1021.65 1021.70 1021.71 1021.68
1016.31 1016.11 1015.87 1015.61 1015.33 1015.06 1014.79 1014.55 1014.34 1014.19 1014.12 1014.12 1014.20 1014.33 1014.49 1014.65 1014.78 1014.87 1014.92 1014.95 1014.99 1015.07 1015.23 1015.49 1015.86 1016.31 1016.83 1017.37 1017.90 1018.38 1018.80 1019.15 1019.44 1019.67 1019.87 1020.05 1020.23 1020.40 1020.57 1020.74 1020.89 1021.02 1021.15 1021.25 1021.33 1021.39 1021.42 1021.42 1021.38
1016.46 1016.30 1016.11 1015.88 1015.62 1015.33 1015.03 1014.74 1014.49 1014.31 1014.23 1014.26 1014.39 1014.61 1014.88 1015.14 1015.36 1015.51 1015.58 1015.59 1015.58 1015.58 1015.66 1015.83 1016.12 1016.53 1017.01 1017.52 1018.03 1018.50 1018.89 1019.19 1019.42 1019.59 1019.72 1019.85 1019.98 1020.13 1020.29 1020.46 1020.62 1020.77 1020.90 1021.00 1021.08 1021.13 1021.14 1021.13 1021.07
1016.53 1016.46 1016.34 1016.18 1015.95 1015.66 1015.34 1015.00 1014.69 1014.46 1014.36 1014.40 1014.58 1014.88 1015.23 1015.59 1015.89 1016.10 1016.19 1016.20 1016.15 1016.10 1016.10 1016.21 1016.45 1016.81 1017.26 1017.76 1018.25 1018.68 1019.03 1019.29 1019.46 1019.56 1019.63 1019.69 1019.78 1019.90 1020.04 1020.20 1020.37 1020.52 1020.64 1020.73 1020.79 1020.83 1020.83 1020.81 1020.75
1016.51 1016.57 1016.56 1016.47 1016.29 1016.00 1015.64 1015.24 1014.86 1014.58 1014.43 1014.47 1014.68 1015.03 1015.46 1015.90 1016.29 1016.55 1016.69 1016.70 1016.64 1016.56 1016.53 1016.60 1016.81 1017.14 1017.57 1018.04 1018.51 1018.91 1019.22 1019.42 1019.52 1019.56 1019.56 1019.57 1019.61 1019.69 1019.81 1019.96 1020.11 1020.24 1020.35 1020.42 1020.46 1020.48 1020.47 1020.45 1020.40
1016.43 1016.62 1016.74 1016.74 1016.59 1016.30 1015.88 1015.41 1014.94 1014.58 1014.38 1014.39 1014.60 1014.99 1015.49 1016.01 1016.47 1016.81 1017.00 1017.06 1017.01 1016.94 1016.91 1016.96 1017.15 1017.47 1017.88 1018.33 1018.77 1019.13 1019.39 1019.54 1019.57 1019.54 1019.49 1019.44 1019.43 1019.48 1019.57 1019.69 1019.82 1019.93 1020.01 1020.06 1020.08 1020.08 1020.07 1020.05 1020.02
1016.32 1016.65 1016.87 1016.94 1016.82 1016.50 1016.02 1015.46 1014.89 1014.44 1014.17 1014.14 1014.35 1014.76 1015.32 1015.91 1016.45 1016.87 1017.13 1017.25 1017.25 1017.21 1017.20 1017.26 1017.45 1017.76 1018.14 1018.57 1018.97 1019.29 1019.50 1019.59 1019.57 1019.48 1019.38 1019.29 1019.24 1019.26 1019.32 1019.41 1019.51 1019.59 1019.64 1019.66 1019.65 1019.64 1019.62 1019.61 1019.61
1016.22 1016.65 1016.96 1017.07 1016.95 1016.59 1016.04 1015.38 1014.71 1014.16 1013.82 1013.74 1013.94 1014.38 1014.97 1015.63 1016.26 1016.76 1017.11 1017.30 1017.37 1017.38 1017.40 1017.49 1017.68 1017.97 1018.33 1018.72 1019.08 1019.35 1019.51 1019.55 1019.48 1019.36 1019.22 1019.10 1019.03 1019.02 1019.06 1019.13 1019.20 1019.24 1019.26 1019.24 1019.21 1019.17 1019.15 1019.14 1019.16
1016.14 1016.65 1017.00 1017.13 1016.99 1016.57 1015.94 1015.19 1014.43 1013.79 1013.39 1013.27 1013.46 1013.91 1014.54 1015.26 1015.95 1016.54 1016.97 1017.24 1017.39 1017.46 1017.52 1017.62 1017.82 1018.09 1018.42 1018.77 1019.07 1019.30 1019.41 1019.42 1019.33 1019.18 1019.03 1018.90 1018.82 1018.80 1018.82 1018.86 1018.90 1018.91 1018.88 1018.83 1018.76 1018.69 1018.65 1018.65 1018.67
1016.08 1016.62 1016.99 1017.11 1016.92 1016.45 1015.75 1014.92 1014.09 1013.40 1012.94 1012.80 1012.98 1013.44 1014.11 1014.87 1015.62 1016.28 1016.78 1017.13 1017.34 1017.47 1017.56 1017.69 1017.88 1018.13 1018.42 1018.72 1018.98 1019.17 1019.25 1019.23 1019.13 1018.99 1018.85 1018.73 1018.65 1018.62 1018.62 1018.64 1018.63 1018.60 1018.53 1018.43 1018.31 1018.21 1018.15 1018.12 1018.13
1015.99 1016.54 1016.90 1016.99 1016.76 1016.24 1015.49 1014.62 1013.75 1013.03 1012.56 1012.41 1012.59 1013.06 1013.74 1014.53 1015.32 1016.02 1016.59 1016.99 1017.26 1017.43 1017.56 1017.70 1017.89 1018.11 1018.37 1018.63 1018.85 1019.00 1019.07 1019.05 1018.96 1018.84 1018.71 1018.61 1018.54 1018.50 1018.49 1018.46 1018.41 1018.33 1018.20 1018.04 1017.88 1017.73 1017.62 1017.56 1017.54
1015.84 1016.37 1016.70 1016.76 1016.50 1015.95 1015.18 1014.30 1013.44 1012.73 1012.27 1012.13 1012.31 1012.79 1013.47 1014.27 1015.08 1015.81 1016.40 1016.85 1017.16 1017.38 1017.54 1017.70 1017.87 1018.09 1018.32 1018.55 1018.74 1018.87 1018.93 1018.92 1018.86 1018.76 1018.66 1018.57 1018.50 1018.45 1018.40 1018.33 1018.23 1018.07 1017.88 1017.66 1017.43 1017.23 1017.07 1016.96 1016.90
1015.58 1016.09 1016.38 1016.40 1016.13 1015.58 1014.83 1013.98 1013.16 1012.50 1012.08 1011.97 1012.17 1012.64 1013.32 1014.10 1014.90 1015.63 1016.24 1016.72 1017.06 1017.31 1017.51 1017.69 1017.88 1018.09 1018.31 1018.52 1018.70 1018.83 1018.89 1018.89 1018.84 1018.77 1018.68 1018.60 1018.52 1018.44 1018.35 1018.22 1018.04 1017.81 1017.55 1017.26 1016.97 1016.71 1016.50 1016.34 1016.22
1015.20 1015.67 1015.93 1015.92 1015.64 1015.11 1014.41 1013.64 1012.90 1012.32 1011.97 1011.90 1012.12 1012.59 1013.25 1014.00 1014.77 1015.49 1016.10 1016.59 1016.97 1017.26 1017.50 1017.72 1017.94 1018.16 1018.38 1018.59 1018.76 1018.89 1018.95 1018.96 1018.92 1018.85 1018.76 1018.66 1018.55 1018.42 1018.26 1018.06 1017.81 1017.51 1017.17 1016.82 1016.48 1016.17 1015.91 1015.71 1015.55
1014.73 1015.14 1015.35 1015.31 1015.04 1014.55 1013.93 1013.25 1012.62 1012.14 1011.87 1011.86 1012.11 1012.58 1013.21 1013.93 1014.67 1015.36 1015.97 1016.48 1016.90 1017.24 1017.53 1017.80 1018.05 1018.30 1018.54 1018.75 1018.92 1019.03 1019.09 1019.09 1019.04 1018.95 1018.83 1018.69 1018.53 1018.34 1018.10 1017.82 1017.50 1017.13 1016.74 1016.34 1015.97 1015.62 1015.34 1015.10 1014.91
Thickness
5750 5752 5753 5744 5723 5712 5714 5733 5741 5739 5741 5746 5747 5743 5737 5734 5726 5715 5735 5744 5742 5735 5727 5721 5717 5714 5710 5707 5704 5702 5699 5697 5695 5693 5691 5689 5688 5687 5686 5685 5684 5683 5683 5683 5683 5682 5682 5682 5682
5752 5756 5749 5734 5714 5703 5720 5737 5738 5740 5744 5748 5747 5744 5741 5741 5746 5738 5738 5743 5740 5734 5727 5721 5716 5712 5708 5705 5702 5699 5696 5693 5691 5689 5687 5685 5684 5682 5681 5679 5678 5677 5677 5677 5676 5676 5676 5676 5676
5753 5756 5739 5725 5715 5713 5726 5739 5741 5746 5749 5746 5744 5747 5744 5743 5749 5744 5743 5743 5739 5733 5726 5720 5715 5711 5707 5703 5699 5696 5693 5690 5688 5685 5683 5681 5679 5678 5676 5674 5673 5672 5671 5671 5671 5670 5670 5670 5670
5752 5743 5737 5724 5719 5734 5739 5743 5744 5743 5745 5746 5743 5741 5750 5754 5752 5745 5745 5742 5737 5732 5725 5719 5713 5709 5705 5701 5697 5693 5690 5687 5684 5682 5680 5678 5676 5674 5671 5670 5668 5667 5666 5666 5665 5665 5665 5664 5664
5748 5735 5721 5717 5726 5743 5749 5749 5746 5738 5740 5745 5743 5737 5741 5748 5750 5747 5743 5741 5736 5731 5725 5717 5712 5707 5702 5698 5694 5690 5687 5684 5681 5679 5676 5674 5672 5670 5667 5665 5664 5662 5662 5661 5660 5660 5660 5660 5659
5736 5732 5716 5714 5730 5743 5748 5750 5746 5739 5741 5745 5742 5736 5736 5744 5744 5743 5742 5739 5736 5730 5724 5716 5710 5705 5700 5696 5692 5688 5684 5681 5678 5675 5673 5671 5668 5666 5664 5661 5660 5658 5657 5656 5656 5655 5655 5655 5655
5728 5722 5715 5723 5728 5734 5743 5748 5740 5736 5736 5741 5746 5735 5735 5735 5739 5741 5739 5737 5734 5729 5723 5714 5707 5702 5697 5693 5689 5685 5681 5678 5675 5672 5670 5667 5665 5662 5660 5658 5656 5655 5653 5652 5651 5651 5651 5650 5650
5734 5723 5717 5721 5724 5729 5743 5744 5742 5736 5733 5745 5745 5731 5728 5730 5737 5738 5735 5733 5730 5726 5720 5712 5705 5700 5695 5690 5686 5682 5678 5675 5672 5669 5666 5663 5661 5659 5657 5654 5652 5651 5650 5649 5648 5647 5646 5646 5646
5734 5712 5706 5718 5722 5728 5740 5736 5739 5744 5738 5738 5742 5740 5734 5735 5734 5730 5727 5724 5723 5721 5717 5712 5705 5699 5693 5688 5684 5679 5676 5672 5669 5665 5662 5660 5657 5655 5653 5651 5649 5647 5646 5645 5644 5644 5643 5643 5642
5722 5701 5710 5727 5729 5727 5731 5729 5731 5731 5727 5729 5735 5738 5735 5732 5729 5724 5721 5718 5716 5714 5713 5711 5705 5698 5692 5687 5682 5677 5673 5669 5665 5662 5659 5656 5654 5652 5650 5648 5646 5644 5642 5641 5640 5640 5639 5639 5639
5721 5711 5719 5727 5731 5727 5722 5723 5729 5723 5716 5722 5723 5726 5728 5727 5726 5723 5722 5721 5718 5714 5710 5709 5704 5697 5691 5685 5680 5675 5670 5666 5663 5660 5656 5653 5651 5648 5646 5643 5641 5639 5638 5637 5636 5636 5635 5636 5636
5717 5717 5723 5724 5726 5721 5717 5719 5720 5721 5721 5729 5729 5728 5726 5723 5722 5722 5721 5722 5720 5714 5708 5706 5702 5696 5689 5683 5678 5673 5668 5663 5660 5656 5653 5650 5647 5645 5642 5639 5637 5635 5634 5633 5632 5632 5632 5632 5632
5711 5714 5722 5724 5721 5718 5716 5713 5714 5719 5727 5730 5728 5725 5721 5720 5721 5722 5723 5722 5719 5712 5707 5702 5698 5693 5686 5680 5674 5669 5665 5660 5656 5653 5649 5646 5643 5640 5638 5635 5633 5632 5630 5629 5628 5627 5627 5627 5627
5709 5709 5713 5717 5718 5718 5712 5712 5713 5719 5725 5724 5721 5718 5717 5716 5716 5716 5717 5716 5714 5710 5704 5699 5694 5689 5683 5677 5671 5666 5661 5657 5653 5649 5645 5642 5639 5636 5633 5631 5629 5627 5626 5624 5623 5622 5621 5621 5621
5705 5697 5703 5713 5715 5714 5708 5701 5711 5719 5720 5717 5716 5714 5713 5712 5712 5711 5711 5711 5710 5706 5702 5696 5690 5685 5679 5673 5668 5663 5658 5654 5649 5645 5641 5638 5635 5632 5629 5627 5625 5623 5621 5620 5618 5617 5616 5615 5615
5695 5689 5687 5709 5710 5706 5695 5689 5712 5718 5714 5711 5711 5709 5706 5705 5706 5706 5707 5706 5705 5701 5696 5690 5686 5680 5675 5669 5664 5659 5654 5649 5645 5641 5637 5634 5631 5628 5625 5622 5620 5618 5616 5615 5613 5611 5609 5608 5608
5683 5678 5686 5697 5705 5703 5693 5690 5705 5713 5709 5705 5705 5703 5700 5698 5698 5699 5700 5700 5698 5694 5689 5683 5679 5674 5669 5664 5659 5654 5649 5645 5641 5637 5633 5629 5626 5624 5621 5618 5615 5613 5611 5609 5607 5606 5603 5602 5601
5673 5680 5687 5690 5697 5696 5689 5690 5702 5706 5705 5702 5700 5697 5693 5690 5689 5691 5692 5692 5690 5687 5682 5677 5672 5668 5663 5658 5653 5647 5643 5639 5635 5631 5628 5624 5621 5618 5616 5613 5610 5607 5605 5603 5601 5599 5597 5596 5595
5677 5673 5672 5683 5693 5688 5683 5687 5697 5702 5699 5696 5694 5691 5686 5683 5684 5684 5684 5683 5680 5677 5673 5669 5664 5660 5656 5650 5645 5639 5635 5631 5628 5624 5621 5619 5616 5613 5610 5608 5605 5602 5599 5597 5595 5593 5591 5589 5587
5668 5662 5666 5679 5688 5683 5679 5684 5696 5699 5695 5694 5691 5686 5681 5677 5676 5675 5675 5673 5670 5668 5665 5661 5657 5653 5649 5643 5638 5634 5629 5625 5622 5618 5616 5613 5610 5608 5605 5602 5599 5596 5593 5591 5588 5586 5583 5581 5578
5660 5658 5662 5668 5678 5679 5672 5673 5686 5693 5694 5692 5689 5685 5680 5675 5670 5668 5666 5663 5660 5658 5656 5653 5649 5645 5641 5636 5631 5626 5622 5618 5615 5612 5609 5607 5605 5602 5599 5596 5593 5590 5587 5584 5581 5579 5575 5572 5570
5652 5668 5668 5664 5656 5657 5665 5652 5678 5682 5680 5680 5679 5677 5673 5670 5666 5662 5658 5654 5651 5649 5647 5644 5641 5637 5633 5628 5623 5619 5614 5610 5608 5606 5604 5602 5599 5596 5593 5590 5587 5583 5580 5577 5575 5572 5568 5564 5561
5658 5662 5660 5657 5650 5646 5659 5650 5669 5677 5670 5671 5672 5671 5668 5664 5660 5655 5651 5648 5644 5641 5639 5635 5632 5628 5625 5621 5617 5613 5608 5605 5602 5600 5597 5594 5592 5590 5586 5583 5579 5576 5573 5570 5567 5564 5561 5557 5553
5657 5652 5650 5647 5639 5631 5658 5650 5661 5672 5676 5672 5671 5668 5664 5659 5654 5649 5645 5641 5637 5634 5631 5628 5624 5620 5617 5613 5609 5605 5601 5597 5594 5591 5588 5585 5583 5581 5578 5575 5571 5568 5564 5561 5558 5555 5552 5548 5544
5645 5634 5626 5623 5618 5631 5670 5661 5667 5687 5688 5681 5673 5666 5660 5654 5648 5643 5638 5634 5630 5627 5624 5620 5616 5612 5609 5605 5601 5597 5593 5589 5585 5582 5578 5575 5573 5570 5568 5565 5562 5558 5555 5552 5549 5546 5542 5538 5534
5635 5635 5625 5625 5631 5645 5651 5651 5669 5683 5684 5684 5676 5666 5658 5650 5644 5638 5634 5629 5625 5621 5617 5613 5609 5605 5601 5597 5593 5589 5585 5581 5577 5574 5570 5566 5563 5561 5559 5556 5552 5549 5546 5542 5539 5535 5532 5528 5523
5636 5633 5644 5632 5636 5634 5647 5662 5663 5675 5671 5671 5666 5659 5652 5646 5640 5634 5629 5624 5619 5615 5611 5606 5601 5597 5593 5588 5584 5580 5576 5572 5568 5565 5561 5558 5555 5552 5549 5546 5542 5539 5535 5532 5528 5524 5520 5516 5511
5638 5642 5631 5622 5618 5618 5645 5653 5652 5654 5656 5658 5656 5651 5647 5642 5636 5630 5625 5619 5614 5609 5603 5598 5593 5588 5584 5579 5575 5571 5567 5563 5559 5555 5552 5549 5546 5542 5539 5535 5532 5529 5525 5521 5517 5512 5508 5503 5498
5627 5630 5632 5630 5632 5621 5624 5643 5663 5661 5659 5654 5651 5648 5643 5637 5631 5625 5619 5613 5607 5600 5594 5589 5584 5579 5574 5569 5565 5560 5556 5553 5549 5545 5542 5539 5535 5532 5528 5525 5521 5517 5513 5509 5504 5499 5494 5488 5483
5634 5632 5628 5618 5624 5628 5620 5633 5663 5662 5660 5655 5649 5645 5640 5633 5626 5619 5612 5605 5598 5591 5585 5579 5574 5569 5564 5559 5554 5550 5546 5542 5538 5534 5531 5528 5524 5521 5517 5513 5509 5505 5501 5496 5490 5485 5479 5473 5466